Location: Chihuahua
(28.6330°N, 106.0830°W)
Time: 19:04:20
(UTC-07:00)

Daily predictions for brighter satellites

Satellite Brightness Start Highest point End
(mag) Time Altitude Azimuth Time Altitude Azimuth Time Altitude Azimuth
Meteor 2-21 Rocket 4.5 17:46:04 10° S 17:52:11 82° E 17:58:15 10° N
Cosmos 2366 rocket 4.0 17:48:28 10° S 17:54:38 63° E 18:00:45 10° NNE
ISS -2.5 17:54:13 10° NNW 17:56:58 24° NE 17:59:42 10° E
Milstar 3 Cent rocket 3.6 17:48:05 10° W 18:00:13 65° SSW 18:06:14 10° ESE
ATLAS 3B CENTAUR R/B 3.0 17:57:09 10° W 18:00:57 47° S 18:10:08 10° ESE
METEOR-M 4.3 17:57:27 10° SSE 18:02:35 49° ENE 18:07:42 10° N
Ariane Rocket 4.2 17:58:39 10° S 18:03:32 47° W 18:08:26 10° NNW
SPOT 3 Rocket 3.9 17:58:46 10° SE 18:03:36 42° ENE 18:08:28 10° N
Cosmos 1315 Rocket 4.5 18:06:30 10° NE 18:08:50 15° ENE 18:11:12 10° ESE
SL-8 Rocket 4.4 18:03:31 10° SSW 18:09:37 67° W 18:15:48 10° N
Cosmos 1833 4.2 18:11:03 10° SSW 18:16:46 85° ESE 18:22:28 10° NNE
Cosmos 2098 Rocket 4.3 18:15:32 10° SE 18:18:08 18° E 18:21:09 10° NE
BREEZE M DEB (TANK) 3.5 18:13:41 10° NW 18:18:32 49° SW 18:20:57 10° SSE
NOAA 12 4.4 18:13:59 10° SE 18:18:58 45° ENE 18:23:59 10° N
Cosmos 2058 3.4 18:15:21 10° NNE 18:19:12 36° E 18:23:01 10° SSE
Cosmos 2056 Rocket 3.5 18:14:31 10° N 18:19:45 62° ENE 18:24:53 10° SSE
Meteor 2-1 Rocket 4.2 18:14:44 10° S 18:20:22 67° E 18:26:09 10° NNE
DMSP B5D1-3 4.5 18:15:40 10° NNE 18:20:47 74° ESE 18:25:55 10° S
Cosmos 2219 4.1 18:17:13 10° SSE 18:21:55 27° ESE 18:26:36 10° NE
RESURS DK-1 4.1 18:20:45 10° NNE 18:23:04 15° ENE 18:23:04 15° ENE
Cosmos 2360 Rocket 3.1 18:19:02 10° N 18:23:47 27° ENE 18:28:04 12° ESE
COSMO-SKYMED 1 3.4 18:19:33 10° N 18:23:48 53° WNW 18:28:01 10° SSW
Cosmos 1626 2.1 18:20:40 10° N 18:24:21 59° E 18:28:01 10° SSE
GPS 2-05 Rocket1 4.3 18:21:53 10° W 18:24:57 32° SSW 18:28:06 10° SE
Cosmos 1980 Rocket 4.5 18:20:19 10° NW 18:25:06 28° WSW 18:29:53 10° SSW
SAR-Lupe-3 4.4 18:26:10 10° NNE 18:29:43 67° E 18:33:16 10° S
Cosmos 2322 Rocket 2.1 18:24:24 10° NNW 18:30:02 87° ENE 18:35:39 10° SSE
Cosmos 1821 Rocket 4.4 18:26:49 10° SSE 18:32:21 37° E 18:37:56 10° NNE
Meteor 1-11 4.4 18:31:27 10° N 18:37:13 78° W 18:42:55 10° S
Cosmos 1452 Rocket 4.1 18:32:56 10° N 18:37:38 33° ENE 18:40:42 18° ESE
YAOGAN 1 4.4 18:38:24 10° SSW 18:42:19 34° W 18:46:15 10° NNW
Atlas Centaur 2 2.1 18:38:45 10° W 18:43:44 74° N 18:47:13 27° E
USA 267 3.3 18:38:21 10° NE 18:44:54 83° NW 18:51:26 10° SW
ALOS 2.1 18:40:20 10° SSE 18:44:59 81° ENE 18:49:40 10° N
Cosmos 1727 Rocket 4.1 18:42:33 10° N 18:48:56 82° W 18:55:14 10° S
Cosmos 2322 4.2 18:44:13 10° N 18:49:28 36° ENE 18:51:21 29° ESE
FENGYUN 3A 3.6 18:47:05 10° SSE 18:52:28 88° ENE 18:57:53 10° NNW
ATLAS 2A CENTAUR R/B 1.8 18:52:03 10° SW 18:53:51 30° SSE 18:53:51 30° SSE
CZ-4C R/B 1.9 18:49:33 10° SSW 18:54:25 59° ESE 18:57:34 24° NE
Cosmos 1703 3.6 18:51:01 10° NNW 18:54:54 66° W 18:58:45 10° S
CZ-3 Stage 3 1.7 18:54:10 10° WNW 18:55:08 28° WNW 18:55:08 28° WNW
Skynet4D Del rocket 4.3 18:52:09 10° WSW 18:59:11 77° S 19:03:04 33° E
Tiangong 1 2.3 18:58:50 10° NW 19:00:26 30° NW 19:00:26 30° NW
Cosmos 1400 Rocket 4.2 19:00:36 10° NNW 19:04:23 40° W 19:08:05 10° SSW
ASTRO E2 2.9 19:01:07 10° W 19:05:02 57° N 19:05:26 54° NNE
Cosmos 1048 Rocket 4.0 19:07:03 10° SSW 19:12:11 76° WNW 19:17:19 10° NNE
Cosmos 2219 Rocket 4.3 19:10:31 10° NNE 19:11:01 12° NNE 19:11:01 12° NNE
Iridium 4 Rocket 4.0 19:11:49 10° S 19:16:58 64° W 19:22:35 10° N
H-2A R/B 3.0 19:18:13 63° NNW 19:18:13 63° NNW 19:21:33 10° NNW
SL-16 R/B 4.2 19:18:45 10° NW 19:23:27 27° WSW 19:28:09 10° SSW
Cosmos 1726 3.3 19:20:03 10° SSW 19:22:25 36° SSW 19:22:25 36° SSW
Cosmos 44 3.8 19:20:39 10° SW 19:24:56 49° WNW 19:26:23 34° N
FALCON 9 R/B 2.7 19:22:12 10° W 19:25:01 34° SSW 19:25:33 33° S
Cosmos 1420 Rocket 3.9 19:19:44 10° N 19:24:48 70° NE 19:24:48 70° NE
Cosmos 2237 4.1 19:19:34 10° NNW 19:25:04 63° ENE 19:25:04 63° ENE
Centaur D AC-28 2.9 19:25:58 10° SW 19:29:58 52° SSE 19:30:47 49° SE
Cosmos 2221 4.5 19:27:35 10° SW 19:31:18 29° W 19:35:04 10° NNW
ISS -1.2 19:30:55 10° W 19:33:00 18° WSW 19:33:00 18° WSW
Cosmos 44 Rocket 4.4 19:31:22 10° SW 19:35:49 40° WNW 19:37:31 29° NNW
Hubble Space Telescope 3.6 19:42:06 10° SSW 19:42:15 11° SSW 19:42:15 11° SSW
Cosmos 921 Rocket 4.5 19:45:19 10° NNW 19:48:44 36° WNW 19:48:44 36° WNW
COSMOS 2428 4.0 19:55:34 10° NNW 19:58:23 31° NNW 19:58:23 31° NNW
Cosmos 2360 Rocket 3.9 20:02:49 10° NW 20:07:39 30° WSW 20:09:58 22° SW
Atlas Centaur 2 4.0 20:27:15 10° W 20:29:50 29° W 20:29:50 29° W
